This is the latest recevied weather packets stored in our database for station/object N2XP-2. If no packets are shown the sender has not sent any weather packets the latest 10 day(s).
| Time | Temp. | Humidity | Pressure | Rain* | Wind** | Luminosity | Snow |
|---|---|---|---|---|---|---|---|
| 1778109406 | 21.67° C | 75% | 1007.8 hPa | 0 mm | 0 m/s | - | - |
| 1778109282 | 21.67° C | 74% | 1007.8 hPa | 0 mm | 0.45 m/s, 186° | - | - |
| 1778109279 | 21.67° C | 74% | 1007.7 hPa | 0 mm | 0.89 m/s, 232° | - | - |
| 1778109271 | 21.67° C | 73% | 1007.6 hPa | 0 mm | 0 m/s | - | - |
| 1778109103 | 21.67° C | 74% | 1007.8 hPa | 0 mm | 0 m/s | - | - |
| 1778108804 | 21.67° C | 74% | 1007.9 hPa | 0 mm | 0.45 m/s, 204° | - | - |
| 1778108505 | 21.67° C | 74% | 1007.8 hPa | 0 mm | 0.45 m/s, 156° | - | - |
| 1778108201 | 21.67° C | 74% | 1007.8 hPa | 0 mm | 0.45 m/s, 186° | - | - |
| 1778107902 | 21.67° C | 74% | 1007.7 hPa | 0 mm | 0.89 m/s, 232° | - | - |
| 1778107603 | 21.67° C | 73% | 1007.6 hPa | 0 mm | 0 m/s | - | - |
| 1778107300 | 21.67° C | 73% | 1007.6 hPa | 0 mm | 0.89 m/s, 225° | - | - |
| 1778107001 | 21.67° C | 73% | 1007.6 hPa | 0 mm | 0 m/s | - | - |
| 1778106702 | 21.67° C | 73% | 1007.7 hPa | 0 mm | 0.89 m/s, 212° | - | - |
| 1778106398 | 21.67° C | 73% | 1007.7 hPa | 0 mm | 0.45 m/s, 325° | - | - |
| 1778106099 | 21.67° C | 72% | 1007.8 hPa | 0 mm | 0.89 m/s, 300° | - | - |
| 1778105800 | 21.67° C | 72% | 1007.7 hPa | 0 mm | 0.45 m/s, 215° | - | - |
| 1778105494 | 21.67° C | 72% | 1007.6 hPa | 0 mm | 0.89 m/s, 235° | - | - |
| 1778105195 | 21.67° C | 72% | 1007.6 hPa | 0 mm | 1.34 m/s, 232° | - | - |
| 1778105049 | 21.67° C | 73% | 1007.5 hPa | 0 mm | 0.45 m/s, 167° | - | - |
| 1778104592 | 21.67° C | 72% | 1007.6 hPa | 0 mm | 1.34 m/s, 136° | - | - |
| 1778104293 | 21.67° C | 73% | 1007.5 hPa | 0 mm | 0.89 m/s, 264° | - | - |
| 1778103994 | 21.67° C | 73% | 1007.3 hPa | 0 mm | 2.24 m/s, 297° | - | - |
| 1778103722 | 21.67° C | 73% | 1007.5 hPa | 0 mm | 0.45 m/s, 167° | - | - |
| 1778103691 | 21.67° C | 73% | 1007.5 hPa | 0 mm | 0.45 m/s, 167° | - | - |
| 1778103392 | 21.67° C | 73% | 1007.4 hPa | 0 mm | 0.45 m/s, 330° | - | - |
* Rain latest hour (hover to see other rain measurements)
** Current wind speed in m/s (hover to see current wind gust speed)